Flag for Poland Weather past 2 weeks in Kraków, Poland

Now
68 °F

Scattered clouds.


Feels Like: 68 °F
Forecast: 57 / 82 °F
Wind: 6 mph from Southeast

Location: Krakow Airport

Current Time: Jul 25, 2014 at 9:25:46 PM

Latest Report: Jul 25, 2014 at 9:00 PM


Visibility: N/A

Pressure: 30.01 "Hg

Humidity: 88%

Dew point: 64 °F

Location of KrakówLocation

Historic Weather in Kraków — Graph

°F

Kraków temperature yesterday

Maximum temperature yesterday: 68 °F (at 6:30 PM)
Minimum temperature yesterday: 61 °F (at 12:00 AM)
Average temperature yesterday: 64 °F

Past Weeks' High & Low Weather Summary

 TemperatureHumidityPressure
High88 °F (Jul 20, 3:30 PM)100% (Jul 13, 3:00 AM)30.15 "Hg (Jul 13, 3:00 AM)
Low54 °F (Jul 13, 3:00 AM)35% (Jul 20, 4:30 PM)29.68 "Hg (Jul 11, 2:00 PM)
Average69 °F75%29.94 "Hg
* Reported Jul 10 8:00 PM — Jul 25 8:30 PM, Kraków, Weather by CustomWeather, © 2014

Note: Actual official high and low records may vary slightly from our data, if they occured in-between our weather recording intervals... More about our weather records

Advertising

Kraków weather history for previous 24 hours

 ConditionsComfort  
Time TempWeatherWind HumidityBarometerVisibility
8:30 PM
Jul 25
68 °FSprinkles. Scattered clouds.5 mph88%29.98 "HgN/A
8:00 PM72 °FSprinkles. Scattered clouds.5 mph78%29.95 "HgN/A
7:30 PM73 °FPassing clouds.1 mph74%29.95 "HgN/A
7:00 PM73 °FPassing clouds.3 mph74%29.95 "HgN/A
6:30 PM75 °FScattered clouds.6 mph69%29.95 "HgN/A
6:00 PM75 °FScattered clouds.6 mph65%29.95 "HgN/A
5:30 PM77 °FScattered clouds.7 mph61%29.95 "HgN/A
5:00 PM79 °FPassing clouds.6 mph58%29.92 "HgN/A
4:30 PM79 °FScattered clouds.6 mph54%29.92 "HgN/A
4:00 PM79 °FScattered clouds.5 mph54%29.95 "HgN/A
3:30 PM77 °FScattered clouds.5 mph61%29.95 "HgN/A
3:00 PM79 °FScattered clouds.6 mph58%29.95 "HgN/A
2:30 PM77 °FScattered clouds.6 mph61%29.95 "HgN/A
2:00 PM77 °FScattered clouds.6 mph61%29.95 "HgN/A
1:30 PM75 °FScattered clouds.7 mph65%29.95 "HgN/A
1:00 PM73 °FScattered clouds.7 mph69%29.98 "HgN/A
12:30 PM73 °FScattered clouds.7 mph74%29.98 "HgN/A
12:00 PM73 °FScattered clouds.7 mph74%29.98 "HgN/A
11:30 AM72 °FScattered clouds.3 mph83%29.98 "Hg5 mi
11:00 AM70 °FBroken clouds.7 mph83%29.98 "Hg5 mi
10:30 AM68 °FPartly sunny.5 mph88%29.98 "Hg5 mi
10:00 AM68 °FPartly sunny.3 mph88%29.95 "Hg4 mi
9:30 AM66 °FFog.5 mph94%29.95 "Hg2 mi
9:00 AM64 °FFog.2 mph100%29.95 "Hg1 mi
8:30 AM64 °FFog.5 mph100%29.95 "Hg1 mi
8:00 AM64 °FLow clouds.6 mph94%29.95 "Hg1 mi
7:30 AM64 °FLow clouds.6 mph94%29.95 "Hg1 mi
7:00 AM64 °FFog.3 mph94%29.95 "Hg1 mi
6:30 AM64 °FFog.3 mph94%29.95 "Hg1 mi
6:00 AM64 °FFog.5 mph94%29.92 "Hg1 mi
5:30 AM64 °FFog.2 mph94%29.92 "Hg1 mi
5:00 AM64 °FFog.3 mph94%29.92 "Hg2 mi
4:30 AM64 °FFog.2 mph94%29.92 "Hg2 mi
4:00 AM64 °FFog.2 mph94%29.92 "Hg3 mi
3:30 AM64 °FPassing clouds.5 mph94%29.92 "Hg4 mi
3:00 AM64 °FPassing clouds.5 mph94%29.92 "Hg4 mi
2:30 AM64 °FPassing clouds.6 mph94%29.92 "Hg4 mi
2:00 AM64 °FPassing clouds.6 mph94%29.92 "Hg5 mi
1:30 AM64 °FPassing clouds.5 mph94%29.92 "Hg5 mi
1:00 AM64 °FPassing clouds.7 mph100%29.92 "Hg5 mi
12:30 AM64 °FPassing clouds.7 mph100%29.92 "Hg5 mi
12:00 AM64 °FPassing clouds.8 mph100%29.92 "Hg5 mi
11:30 PM
Jul 24
66 °FPassing clouds.6 mph94%29.92 "Hg5 mi
11:00 PM66 °FPassing clouds.6 mph94%29.92 "Hg5 mi
10:30 PM66 °FPassing clouds.5 mph94%29.92 "Hg5 mi
10:00 PM66 °FSprinkles. Passing clouds.6 mph94%29.92 "Hg5 mi
9:30 PM66 °FSprinkles. Partly sunny.5 mph94%29.92 "Hg5 mi
9:00 PM66 °FPartly sunny.3 mph94%29.92 "Hg5 mi
Weather by CustomWeather, © 2014

See weather overviewHow to use our weather pages